Location: Aalen
(48.8330°N, 10.1000°E)
Time: 23:46:09
(UTC+02:00)

Transit 4A - Pass Details

Date: 06 August 2021
Orbit: 870 x 974 km, 66.8° (Epoch: 26 September)

Event Time Altitude Azimuth Distance (km) Brightness Sun altitude
Rises 04:55:00 0° 311° (NW) 3,466 10.8 -9.7°
Reaches altitude 10° 04:58:59 10° 338° (NNW) 2,529 10.4 -9.2°
Maximum altitude 05:01:45 13° 6° (N) 2,294 10.6 -8.9°
Drops below altitude 10° 05:04:32 10° 35° (NE) 2,540 11.6 -8.5°
Sets 05:08:34 0° 62° (ENE) 3,494 13.1 -8.0°
